Location: Burmarsh
(51.0333°N, 1.0000°E)
Time: 07:33:51
(UTC+00:00)

Daily predictions for brighter satellites

Satellite Brightness Start Highest point End
(mag) Time Altitude Azimuth Time Altitude Azimuth Time Altitude Azimuth
Cosmos 1452 Rocket 3.6 17:05:05 10° SSW 17:10:21 85° WNW 17:15:41 10° NNE
Cosmos 1606 Rocket 4.0 17:09:21 10° SSE 17:13:26 40° E 17:17:35 10° NNE
Helios 1A Rocket 4.0 17:10:20 10° ESE 17:13:40 24° ENE 17:17:01 10° N
CZ-4B R/B 3.5 17:11:54 10° SSE 17:17:30 79° WSW 17:23:03 10° NNW
Okean-O 3.6 17:16:25 10° ESE 17:20:08 27° ENE 17:23:52 10° N
Cosmos 1689 Rocket 3.8 17:18:31 10° NE 17:20:18 15° E 17:22:04 10° SE
AQUARIUS 4.2 17:17:33 10° SSE 17:22:04 87° W 17:26:36 10° NNW
NOSS 2-2 (E) 4.5 17:17:22 10° NW 17:22:45 86° NE 17:30:17 10° SE
Cosmos 1400 Rocket 3.9 17:21:46 10° SSE 17:25:11 26° E 17:28:36 10° NE
Cosmos 1908 3.6 17:23:12 10° SSW 17:27:02 68° WNW 17:30:55 10° N
Cosmos 2227 Rocket 2.4 17:21:46 10° NNW 17:27:18 50° NE 17:32:47 10° SE
Cosmos 2266 Rocket 4.4 17:21:29 10° NNW 17:27:40 70° W 17:33:56 10° S
H-2A R/B 3.2 17:23:54 10° ESE 17:28:10 24° ENE 17:32:28 10° N
Cosmos 2058 4.2 17:25:07 10° NNE 17:28:14 20° ENE 17:31:21 10° ESE
Meteor 2-16 Rocket 4.4 17:22:28 10° N 17:28:33 64° ENE 17:34:35 10° SSE
Cosmos 1892 3.7 17:26:25 10° NNE 17:29:43 26° ENE 17:33:00 10° SE
GEOS 3 Rocket 4.2 17:25:21 10° E 17:30:21 42° NNE 17:35:25 10° NW
CZ-4 R/B 2.3 17:27:07 10° ESE 17:30:22 26° ENE 17:33:37 10° N
Cosmos 2263 Rocket 3.8 17:28:26 10° N 17:32:12 18° NNE 17:35:34 11° ENE
Cosmos 1408 4.0 17:31:10 10° NNE 17:33:51 19° ENE 17:36:31 10° ESE
BREEZE-M DEB (TANK) 4.0 17:30:30 10° WSW 17:34:05 90° SSW 17:46:14 12° ENE
BREEZE-M R/B 4.2 17:23:10 10° W 17:34:27 73° S 17:37:09 13° E
NOSS 3-4 (A) 4.4 17:32:14 10° NW 17:38:20 37° NNE 17:44:11 13° E
NOSS 3-4 (C) 4.4 17:32:21 10° NW 17:38:26 37° NNE 17:44:16 13° E
CZ-4C R/B 3.8 17:33:16 10° NW 17:38:41 29° N 17:44:25 12° ENE
NOSS 2-2 (D) 4.5 17:35:02 10° NW 17:40:20 88° SW 17:47:45 10° SE
Cosmos 1953 Rocket 3.5 17:36:17 10° N 17:40:42 81° ENE 17:45:09 10° SSE
Cosmos 1300 2.6 17:39:41 10° S 17:43:26 63° E 17:47:15 10° NNE
SL-4 R/B 1.6 17:42:52 10° W 17:46:25 79° N 17:49:04 18° E
Cosmos 2058 Rocket 3.4 17:42:32 10° SSE 17:46:48 45° E 17:51:07 10° NNE
Cosmos 1697 Rocket 3.9 17:42:54 10° SE 17:46:50 20° E 17:49:37 14° ENE
Cosmos 1331 Rocket 3.9 17:42:05 10° SSW 17:47:15 82° ESE 17:52:26 10° NNE
Cosmos 1346 Rocket 3.5 17:45:01 10° N 17:48:38 32° ENE 17:52:14 10° SE
IRS-1C Rocket 4.0 17:43:53 10° SSE 17:49:08 74° ENE 17:54:25 10° NNW
CZ-2D R/B 3.4 17:45:31 10° SSE 17:49:12 50° ENE 17:52:55 10° N
SeaSat 1 3.4 17:46:27 14° E 17:49:50 29° NE 17:54:05 10° NNW
USA 305 2.9 17:45:53 10° WNW 17:50:12 76° NNE 17:53:27 17° ESE
Cosmos 1825 3.5 17:47:59 10° NNE 17:50:51 20° ENE 17:51:38 19° E
Cosmos 44 3.2 17:50:07 10° SSW 17:54:36 66° SE 17:59:05 12° NE
Cosmos 1315 Rocket 4.1 17:53:29 10° SE 17:56:20 20° E 17:56:20 20° E
USA 306 2.9 17:52:17 10° WNW 17:56:36 80° NNE 17:59:35 19° ESE
NOAA 11 4.5 17:51:14 10° S 17:56:40 72° WSW 18:02:07 10° NNW
USA 215 3.6 17:51:39 15° E 17:56:57 55° N 18:03:19 10° WNW
SAR-Lupe-4 3.4 17:54:58 10° NNE 17:58:34 70° ESE 18:02:09 10° S
ERS-2 2.5 17:55:02 10° N 17:58:41 66° WNW 18:02:16 10° SSW
BREEZE-M R/B 3.4 17:56:42 10° W 18:00:19 78° S 18:05:18 18° E
ATLAS 2AS CENTAUR R/B 3.5 17:53:14 10° NW 18:00:28 40° NNE 18:05:16 19° E
Cosmos 968 Rocket 3.4 17:57:38 10° NNW 18:02:52 69° ENE 18:08:02 10° SSE
Cosmos 1340 2.5 17:59:51 10° NNW 18:03:40 85° ENE 18:07:26 10° SSE
Cosmos 2297 Rocket 2.3 18:01:35 10° NNW 18:07:18 80° WSW 18:12:56 10° SSE
HJ-1C 4.4 18:07:27 27° ENE 18:07:27 27° ENE 18:10:13 10° N
COSMO-SKYMED 1 2.5 18:03:00 10° NNE 18:07:21 68° ESE 18:11:41 10° S
MOS 1 Rocket 4.1 18:03:55 10° NE 18:07:57 28° E 18:12:08 10° SSE
Cosmos 2369 Rocket 4.3 18:03:38 10° W 18:07:58 22° NW 18:12:20 10° NNE
Cosmos 1076 Rocket 4.0 18:04:45 10° N 18:08:42 36° ENE 18:11:35 16° SE
H-2A R/B 4.1 18:05:20 10° N 18:08:55 28° WNW 18:12:27 10° WSW
Cosmos 1980 Rocket 4.0 18:06:15 10° SE 18:07:19 13° SE 18:07:19 13° SE
In-Cosmos 22 Rocket 4.0 18:04:23 10° NNW 18:09:47 85° ENE 18:15:14 10° SSE
Aureole 3 Rocket 3.2 18:08:15 10° S 18:12:20 77° E 18:18:06 10° NNE
S3M 4.1 18:10:36 10° SSE 18:16:25 49° E 18:22:20 10° NNE
SAR-Lupe-1 4.1 18:12:50 10° NNE 18:16:27 79° WNW 18:20:02 10° SSW
CSL-04 Debris 4.3 18:11:22 10° SE 18:16:39 55° ENE 18:22:00 10° N
Cosmos 1302 Rocket 3.9 18:12:58 10° SSW 18:18:14 80° ESE 18:23:34 10° NNE
SL-08 ROCKET BODY 4.4 18:13:20 10° N 18:19:27 75° E 18:25:37 10° SSE
Lacrosse 5 2.6 18:16:08 10° WNW 18:20:57 42° N 18:23:30 24° ENE
FALCON 9 DEB 3.1 18:17:50 10° WNW 18:21:15 69° N 18:22:07 45° ENE
FALCON 9 DEB 3.1 18:19:51 10° SW 18:23:02 57° SSE 18:23:30 50° ESE
Okean O Rocket 4.3 18:19:46 10° SW 18:23:08 22° W 18:26:31 10° NW
ERBS 3.6 18:20:20 10° WNW 18:23:18 28° N 18:24:02 26° NNE
Cosmos 1486 Rocket 4.1 18:18:00 10° NNW 18:23:23 82° WSW 18:28:41 10° SSE
Cosmos 292 Rocket 4.2 18:18:40 10° SW 18:23:26 65° WNW 18:28:16 10° NNE
YAOGAN 1 2.4 18:19:57 10° SSE 18:24:17 78° ENE 18:28:38 10° NNW
Aureole 3 2.9 18:22:57 10° SSW 18:26:01 66° WNW 18:29:00 10° N
FALCON 9 DEB 2.9 18:24:03 10° WSW 18:27:12 63° SSE 18:27:30 58° ESE
Cosmos 1417 Rocket 4.4 18:21:14 10° S 18:27:27 71° E 18:33:46 10° NNE
Cosmos 1812 Rocket 4.1 18:27:09 10° SSE 18:35:44 - NNE 18:30:37 36° ESE
Cosmos 1455 2.6 18:28:19 10° SSE 18:31:14 40° SE 18:31:14 40° SE
Meteor 2-8 Rocket 4.5 18:26:08 10° S 18:32:15 84° W 18:38:28 10° N
Cosmos 1503 Rocket 3.9 18:27:58 10° NNW 18:33:13 74° ENE 18:37:11 18° SSE
CZ-2C R/B 3.2 18:28:39 10° SSE 18:34:27 89° ENE 18:40:06 10° NNW
CZ-4B R/B 3.8 18:34:30 10° N 18:37:10 23° WNW 18:39:44 10° WSW
Cosmos 2219 4.2 18:31:59 10° NW 18:37:30 48° WSW 18:42:59 10° S
FALCON 9 DEB 2.9 18:36:03 10° WSW 18:39:09 70° S 18:39:09 70° S
USA 307 3.0 18:35:17 10° WNW 18:39:34 71° SSW 18:40:52 42° SE
Geosat FO 4.5 18:41:07 51° SE 18:41:59 87° ENE 18:45:30 10° NNW
USA 308 3.1 18:40:08 10° WNW 18:44:24 67° SSW 18:45:31 46° SE
Cosmos 1354 Rocket 3.9 18:39:29 10° NNW 18:44:47 80° ENE 18:47:53 25° SSE
Meteor 2-10 Rocket 3.4 18:40:04 10° S 18:45:21 77° E 18:50:29 10° NNE
Cosmos 1553 Rocket 4.1 18:39:34 10° SSW 18:45:56 81° W 18:52:15 10° N
Cosmos 2082 3.7 18:40:36 10° NNW 18:46:23 84° WSW 18:50:45 18° SSE
Helios 1A Rocket 4.2 18:44:44 10° S 18:48:38 41° W 18:52:33 10° NNW
FALCON 9 DEB 3.4 18:47:39 10° WSW 18:50:17 57° WSW 18:50:17 57° WSW
Cosmos 1689 Rocket 3.9 18:48:58 10° N 18:51:34 30° WNW 18:54:09 10° SW
ATLAS 5 CENTAUR R/B 3.7 18:49:24 10° NW 18:52:57 21° N 18:55:00 17° NNE
Meteor 2-15 Rocket 4.3 18:47:39 10° S 18:53:47 78° E 18:59:58 10° NNE
Okean-O 3.8 18:52:14 10° S 18:56:27 42° W 19:00:41 10° NNW
Cosmos 1992 Rocket 3.8 18:52:04 10° SSW 18:57:14 72° ESE 18:59:48 30° NNE
Cosmos 2151 3.8 18:53:16 10° N 18:56:04 37° NNE 18:56:04 37° NNE
ARGOS 3.0 18:54:41 22° SSE 18:58:18 80° ENE 19:03:46 10° NNW
SL-08 RB Rocket 3.8 19:00:38 55° NE 19:00:38 55° NE 19:04:33 10° N
Cosmos 2369 3.7 18:56:33 10° S 19:02:09 59° ESE 19:03:11 51° ENE
Cosmos 1656 3.9 18:59:43 10° SW 19:05:17 71° WNW 19:10:04 15° NNE
CZ-4 R/B 3.0 19:01:47 10° SSW 19:05:19 33° W 19:08:51 10° NNW
Cosmos 2058 3.9 19:01:28 10° NNW 19:05:23 45° W 19:09:18 10° SSW
Cosmos 1844 Rocket 4.3 19:01:36 10° NNW 19:05:18 19° NNE 19:05:18 19° NNE
H-2A R/B 2.4 19:01:43 10° S 19:07:07 70° WSW 19:12:36 10° NNW
Ariane Rocket 3.3 19:07:51 50° NE 19:07:51 50° NE 19:12:13 10° N
Geosat 3.8 19:06:43 55° NE 19:07:47 75° ESE 19:12:48 10° SSW
GEOS 3 Rocket 4.0 19:05:41 31° SSE 19:08:13 62° SW 19:13:36 10° NW
Cosmos 1408 3.9 19:05:36 10° NNW 19:09:02 39° W 19:11:40 15° SSW
Cosmos 220 Rocket 4.0 19:06:11 10° SSW 19:10:33 81° WNW 19:10:52 74° N
Cosmos 2227 Rocket 3.7 19:06:08 10° NW 19:11:12 34° WSW 19:16:13 10° S
CSL-04 Rocket 4.2 19:10:59 10° S 19:16:27 59° WSW 19:21:55 10° NNW
Cosmos 2263 Rocket 2.3 19:11:47 10° NNW 19:17:16 57° NE 19:17:16 57° NE
Timation 1 Rocket 4.4 19:12:20 10° NW 19:18:21 74° WSW 19:20:34 41° SSE
SL-4 R/B 3.3 19:22:22 10° WNW 19:24:39 35° W 19:24:39 35° W
Cosmos 1825 3.5 19:22:58 10° NNW 19:26:28 39° W 19:26:28 39° W
SeaSat 1 2.7 19:26:15 54° SSW 19:27:05 63° WSW 19:32:00 10° NW
CZ-4C R/B 3.1 19:22:08 10° NW 19:28:43 52° NE 19:29:36 49° ENE
USA 305 4.2 19:26:04 10° WNW 19:29:36 36° SW 19:29:36 36° SW
NOSS 3-4 (A) 3.7 19:23:11 10° NW 19:30:05 87° NE 19:31:39 60° SE
Cosmos 1697 Rocket 2.7 19:24:30 10° SSW 19:30:08 80° WNW 19:31:25 55° NNE
NOSS 3-4 (C) 3.7 19:23:18 10° NW 19:30:11 87° NE 19:31:43 60° SE
Cosmos 2184 Rocket 4.4 19:26:08 10° N 19:31:04 47° NE 19:31:04 47° NE
Cosmos 1315 Rocket 4.1 19:28:56 10° SW 19:32:10 39° W 19:32:10 39° W
USA 306 4.4 19:32:31 10° WNW 19:35:44 32° WSW 19:35:44 32° WSW
DEBRIS 4.1 19:21:30 10° WSW 19:36:34 66° SSE 19:36:49 65° SSE
Cosmos 1709 Rocket 4.4 19:32:37 10° NNW 19:38:55 62° W 19:44:29 13° S
USA 215 3.1 19:39:00 73° E 19:39:43 84° NNE 19:46:18 10° WNW
NOSS 3-3 (A) 3.9 19:35:18 10° SW 19:41:14 87° NW 19:41:47 76° NNE
NOSS 3-3 (C) 3.9 19:35:24 10° SW 19:41:22 87° NW 19:41:53 77° NNE
SJ 16-02 3.7 19:40:14 10° N 19:41:07 15° N 19:41:07 15° N
MOS 1 Rocket 4.4 19:41:57 10° N 19:46:19 43° WNW 19:50:56 10° SW
ATLAS 2AS CENTAUR R/B 2.6 19:44:40 10° NW 19:52:18 89° SW 19:52:43 81° SSE
Cosmos 2074 Rocket 4.3 19:46:19 10° N 19:51:03 53° N 19:51:03 53° N
Cosmos 1980 Rocket 3.8 19:47:10 10° SSW 19:49:11 23° SSW 19:49:11 23° SSW
IRS-1A Rocket 4.4 19:53:26 68° WNW 19:53:26 68° WNW 19:58:32 10° NNW
COSMOS 2455 4.3 19:51:06 10° NNW 19:55:08 26° NNE 19:55:08 26° NNE
Resurs 01 Rocket 4.3 20:02:02 11° N 20:02:02 11° N 20:02:15 10° N
Cosmos 2315 Rocket 4.3 19:55:10 10° SSW 20:01:17 62° WNW 20:07:27 10° N
Lacrosse 5 3.1 19:59:31 10° WNW 20:02:41 37° NW 20:02:41 37° NW
ATLAS 5 CENTAUR R/B 4.2 20:34:48 10° NW 20:36:32 19° NNW 20:36:32 19° NNW
Cosmos 2263 Rocket 4.2 20:56:11 10° NW 20:58:58 24° WNW 20:58:58 24° WNW
CZ-4C R/B 4.0 21:10:38 10° NW 21:14:47 38° WNW 21:14:47 38° WNW
